Weather History for Tampa, FL

Change the Weather History Date:

Wednesday, August 28, 2013

  Actual Average Record
Temperature  
Mean Temperature 83 °F 83 °F  
Max Temperature 91 °F 90 °F 97 °F (1960)
Min Temperature 75 °F 76 °F 68 °F (1984)
Degree Days  
Heating Degree Days 0 0  
Month to date heating degree days 0 0  
Since 1 June heating degree days 0 0  
Since 1 July heating degree days 0 0  
Cooling Degree Days 18 18  
Month to date cooling degree days 536 504  
Year to date cooling degree days 2583 2455  
Since 1 June cooling degree days 1608 1578  
Growing Degree Days 33 (Base 50)    
Moisture  
Dew Point 70 °F    
Average Humidity 66    
Maximum Humidity 87    
Minimum Humidity 44    
Precipitation  
Precipitation T in 0.25 in 4.65 in (1925)
Month to date precipitation 11.45 7.03  
Year to date precipitation 42.06 32.98  
Sea Level Pressure  
Sea Level Pressure 30.03 in    
Wind  
Wind Speed 3 mph (South)    
Max Wind Speed 15 mph    
Max Gust Speed 20 mph    
Visibility 10 miles    
Events      
T = Trace of Precipitation, MM = Missing Value Source: NWS Daily Summary

Daily Weather History Graph

Daily Weather History Graph

Search for Another Location

Airport:

Trip Planner

Search our weather history database for the weather conditions in past years. The results will help you decide how hot, cold, wet, or windy it might be!

Date:

Astronomy

Aug. 28, 2013 Rise Set
Actual Time 7:06 AM EDT 7:55 PM EDT
Civil Twilight 6:42 AM EDT 8:19 PM EDT
Nautical Twilight 6:14 AM EDT 8:47 PM EDT
Astronomical Twilight 5:45 AM EDT 9:16 PM EDT
Moon 12:26 AM EDT (8/28) 2:17 PM EDT (8/28)
Length of Visible Light 13h 36m
Length of Day
12h 48m
Waning Gibbous, 47% of the Moon is Illuminated
Aug 28
Waning Gibbous
Sep 5
New
Sep 12
First Quarter
Sep 19
Full
Sep 26
Last Quarter

Hourly Weather History & Observations

Time (EDT) Temp. Heat Index Dew Point Humidity Pressure Visibility Wind Dir Wind Speed Gust Speed Precip Events Conditions
12:53 AM 79.0 °F - 73.0 °F 82% 30.04 in 10.0 mi Calm Calm - N/A   Scattered Clouds
1:53 AM 79.0 °F - 73.0 °F 82% 30.03 in 10.0 mi Calm Calm - N/A   Partly Cloudy
2:53 AM 78.1 °F - 71.1 °F 79% 30.02 in 10.0 mi Calm Calm - N/A   Clear
3:53 AM 77.0 °F - 70.0 °F 79% 30.01 in 10.0 mi Calm Calm - N/A   Partly Cloudy
4:53 AM 77.0 °F - 69.1 °F 76% 30.01 in 10.0 mi Calm Calm - N/A   Scattered Clouds
5:53 AM 75.9 °F - 70.0 °F 82% 30.01 in 10.0 mi Calm Calm - N/A   Clear
6:53 AM 75.0 °F - 70.0 °F 84% 30.02 in 10.0 mi ENE 3.5 mph - N/A   Scattered Clouds
7:53 AM 75.9 °F - 71.1 °F 85% 30.04 in 10.0 mi Calm Calm - N/A   Scattered Clouds
8:53 AM 80.1 °F 83.2 °F 70.0 °F 71% 30.04 in 10.0 mi Calm Calm - N/A   Partly Cloudy
9:53 AM 82.9 °F 87.0 °F 70.0 °F 65% 30.06 in 10.0 mi Variable 3.5 mph - N/A   Partly Cloudy
10:53 AM 84.9 °F 89.4 °F 70.0 °F 61% 30.07 in 10.0 mi SE 3.5 mph - N/A   Scattered Clouds
11:53 AM 87.1 °F 89.9 °F 66.9 °F 51% 30.08 in 10.0 mi SE 5.8 mph - N/A   Scattered Clouds
12:53 PM 87.1 °F 88.9 °F 64.9 °F 48% 30.05 in 10.0 mi Variable 6.9 mph - N/A   Scattered Clouds
1:53 PM 90.0 °F 91.7 °F 64.9 °F 43% 30.04 in 10.0 mi Calm Calm - N/A   Scattered Clouds
2:53 PM 88.0 °F 92.1 °F 69.1 °F 53% 30.02 in 10.0 mi Variable 6.9 mph - N/A   Scattered Clouds
3:53 PM 88.0 °F 92.1 °F 69.1 °F 53% 30.01 in 10.0 mi WSW 8.1 mph - N/A   Mostly Cloudy
4:53 PM 87.1 °F 92.8 °F 71.1 °F 59% 29.99 in 10.0 mi West 5.8 mph - N/A   Mostly Cloudy
5:53 PM 88.0 °F 94.7 °F 72.0 °F 59% 29.99 in 10.0 mi WNW 10.4 mph - N/A   Scattered Clouds
6:53 PM 81.0 °F 84.9 °F 71.1 °F 72% 30.00 in 10.0 mi South 12.7 mph - 0.00 in   Mostly Cloudy
7:53 PM 80.1 °F 83.6 °F 71.1 °F 74% 30.02 in 10.0 mi South 10.4 mph - N/A   Scattered Clouds
8:53 PM 80.1 °F 83.2 °F 70.0 °F 71% 30.03 in 10.0 mi South 4.6 mph - N/A   Scattered Clouds
9:53 PM 81.0 °F 84.4 °F 70.0 °F 69% 30.04 in 10.0 mi Calm Calm - N/A   Mostly Cloudy
10:53 PM 82.0 °F 85.5 °F 69.1 °F 65% 30.05 in 10.0 mi Calm Calm - N/A   Mostly Cloudy
11:53 PM 81.0 °F 84.1 °F 69.1 °F 67% 30.05 in 10.0 mi Calm Calm - N/A   Scattered Clouds